Regional Weather Roundup
Issued by NWS

Home | Current Version | Previous Version | Text Only | Print | Product List | Glossary Off
Versions: 1 2 3 4 5 6 7 8 9 10 11 12 13 14 15 16 17 18 19 20 21 22 23 24 25 26 27 28 29 30 31 32 33 34 35 36 37 38 39 40 41 42 43 44 45 46 47 48 49 50

000
ASUS45 KBOI 202310
RWRID
WEATHER ROUNDUP FOR IDAHO
NATIONAL WEATHER SERVICE BOISE ID
500 PM MDT WED AUG 20 2014

NOTE: "FAIR" INDICATES FEW OR NO CLOUDS BELOW 12000 FEET
WITH NO SIGNIFICANT WEATHER AND/OR OBSTRUCTIONS TO VISIBILITY

IDZ012-014-210000-
SOUTHWEST IDAHO


CITY           SKY/WX    TMP DP  RH WIND       PRES   REMARKS
BOISE          PTSUNNY   83  43  24 N3        29.80F
CALDWELL       PTSUNNY   82  50  32 E6        29.80F
MOUNTAIN HOME  MOSUNNY   85  45  24 VRB5      29.80F
$$

IDZ016-017-210000-
SOUTHCENTRAL IDAHO


CITY           SKY/WX    TMP DP  RH WIND       PRES   REMARKS
BURLEY         TSTM      66  53  63 SW24G32   29.91R
JEROME         PTSUNNY   79  50  36 VRB6      29.88S
TWIN FALLS     PTSUNNY   78  49  35 S16G22    29.89F
$$

IDZ019>023-210000-
SOUTHEAST IDAHO


CITY           SKY/WX    TMP DP  RH WIND       PRES   REMARKS
IDAHO FALLS    PTSUNNY   68  50  52 N23G29    29.92R
POCATELLO      TSTM      72  49  44 S21G26    29.90R
REXBURG        PTSUNNY   64  47  53 NW13G29   29.94R
$$

IDZ006-010-011-018-031-032-210000-
CENTRAL IDAHO MOUNTAINS


CITY           SKY/WX    TMP DP  RH WIND       PRES   REMARKS
MCCALL         PTSUNNY   72  42  34 S10       29.91F
HAILEY         PTSUNNY   75  48  38 SE10      29.94F
STANLEY          N/A     59  47  64 VRB3      30.03S
SALMON         CLOUDY    63  55  77 NE8       29.94R
CHALLIS        CLOUDY    62  52  69 NW5       29.98R
$$

IDZ002-004-006-007-026-210000-
NORTHERN IDAHO


CITY           SKY/WX    TMP DP  RH WIND       PRES   REMARKS
LEWISTON       MOSUNNY   86  43  22 NW14G24   29.78F
LOWELL           N/A     86  56  35 VRB5      29.74F
COEUR D`ALENE  MOSUNNY   79  48  34 S13G18    29.81F
MULLAN PASS    CLOUDY    59  50  72 VRB3      30.00S
$$



USA.gov is the U.S. government's official web portal to all federal, state and local government web resources and services.